Glendive, MT

9:52 AM MDT on March 29, 2017 (GMT -0600)
Dawson Community

Weather History for KGDV - August, 2013

Change the Weather History Date:

Thursday, August 1, 2013

  Actual Average Record
Temperature  
Mean Temperature 64 °F -  
Max Temperature 78 °F 84 °F 102 °F (2008)
Min Temperature 51 °F 57 °F 46 °F (1999)
Growing Degree Days 14 (Base 50)    
Moisture  
Dew Point 48 °F    
Average Humidity 52    
Maximum Humidity 82    
Minimum Humidity 34    
Precipitation  
Precipitation 0.05 in - - ()
Sea Level Pressure  
Sea Level Pressure 30.06 in    
Wind  
Wind Speed 6 mph (NE)    
Max Wind Speed 17 mph    
Max Gust Speed 23 mph    
Visibility 10 miles    
Events      
Averages and records for this station are not official NWS values.
T = Trace of Precipitation, MM = Missing Value Source: NWS Daily Summary

Daily Weather History Graph

Daily Weather History Graph

Search for Another Location

Airport or City:

Trip Planner

Search our weather history database for the weather conditions in past years. The results will help you decide how hot, cold, wet, or windy it might be!

Date:

Astronomy

Aug. 01, 2013 Rise Set
Actual Time 5:38 AM MDT 8:31 PM MDT
Civil Twilight 5:02 AM MDT 9:07 PM MDT
Nautical Twilight 4:17 AM MDT 9:52 PM MDT
Astronomical Twilight 3:22 AM MDT 10:46 PM MDT
Moon 1:14 AM MDT (8/1) 4:45 PM MDT (8/1)
Length of Visible Light 16h 04m
Length of Day
14h 53m
Waning Crescent, 23% of the Moon is Illuminated
Aug 1
Waning Crescent
Aug 6
New
Aug 14
First Quarter
Aug 20
Full
Aug 28
Last Quarter

Hourly Weather History & Observations

Time (MDT) Temp. Dew Point Humidity Pressure Visibility Wind Dir Wind Speed Gust Speed Precip Events Conditions
12:15 AM 60.8 °F 44.6 °F 55% 30.14 in 10.0 mi NE 6.9 mph - N/A   Scattered Clouds
12:35 AM 60.8 °F 44.6 °F 55% 30.14 in 10.0 mi NE 5.8 mph - N/A   Partly Cloudy
12:55 AM 59.0 °F 44.6 °F 59% 30.14 in 10.0 mi ENE 3.5 mph - N/A   Partly Cloudy
1:15 AM 59.0 °F 44.6 °F 59% 30.14 in 10.0 mi Calm Calm - N/A   Partly Cloudy
1:35 AM 57.2 °F 44.6 °F 63% 30.14 in 10.0 mi Calm Calm - N/A   Partly Cloudy
1:55 AM 57.2 °F 44.6 °F 63% 30.13 in 10.0 mi NE 3.5 mph - N/A   Clear
2:15 AM 55.4 °F 44.6 °F 67% 30.13 in 10.0 mi NE 3.5 mph - N/A   Clear
2:35 AM 55.4 °F 44.6 °F 67% 30.13 in 10.0 mi Calm Calm - N/A   Partly Cloudy
2:55 AM 55.4 °F 44.6 °F 67% 30.12 in 10.0 mi Calm Calm - N/A   Partly Cloudy
3:15 AM 55.4 °F 44.6 °F 67% 30.12 in 10.0 mi Calm Calm - N/A   Partly Cloudy
3:55 AM 53.6 °F 44.6 °F 72% 30.12 in 10.0 mi NW 3.5 mph - N/A   Clear
4:15 AM 53.6 °F 44.6 °F 72% 30.11 in 10.0 mi North 4.6 mph - N/A   Clear
4:35 AM 51.8 °F 44.6 °F 76% 30.11 in 10.0 mi NW 4.6 mph - N/A   Partly Cloudy
4:55 AM 53.6 °F 44.6 °F 72% 30.11 in 10.0 mi NW 5.8 mph - N/A   Scattered Clouds
5:15 AM 53.6 °F 44.6 °F 72% 30.11 in 10.0 mi WNW 4.6 mph - N/A   Scattered Clouds
5:35 AM 53.6 °F 44.6 °F 72% 30.10 in 10.0 mi NNW 3.5 mph - N/A   Partly Cloudy
5:55 AM 53.6 °F 44.6 °F 72% 30.10 in 10.0 mi North 5.8 mph - N/A   Clear
6:15 AM 53.6 °F 46.4 °F 77% 30.11 in 10.0 mi NW 3.5 mph - N/A   Clear
6:35 AM 53.6 °F 46.4 °F 77% 30.11 in 10.0 mi WNW 3.5 mph - N/A   Partly Cloudy
7:15 AM 57.2 °F 48.2 °F 72% 30.11 in 10.0 mi North 3.5 mph - N/A   Partly Cloudy
7:35 AM 60.8 °F 48.2 °F 63% 30.10 in 10.0 mi Calm Calm - N/A   Mostly Cloudy
7:55 AM 62.6 °F 48.2 °F 59% 30.10 in 10.0 mi Calm Calm - N/A   Partly Cloudy
8:15 AM 64.4 °F 46.4 °F 52% 30.10 in 10.0 mi Calm Calm - N/A   Clear
8:35 AM 64.4 °F 48.2 °F 56% 30.10 in 10.0 mi Calm Calm - N/A   Clear
8:55 AM 68.0 °F 48.2 °F 49% 30.10 in 10.0 mi Calm Calm - N/A   Partly Cloudy
9:15 AM 68.0 °F 46.4 °F 46% 30.09 in 10.0 mi East 3.5 mph - N/A   Clear
9:55 AM 68.0 °F 48.2 °F 49% 30.09 in 10.0 mi ENE 4.6 mph - N/A   Clear
10:15 AM 69.8 °F 48.2 °F 46% 30.08 in 10.0 mi NE 4.6 mph - N/A   Clear
10:35 AM 69.8 °F 48.2 °F 46% 30.08 in 10.0 mi East 4.6 mph - N/A   Clear
10:55 AM 73.4 °F 50.0 °F 44% 30.07 in 10.0 mi East 8.1 mph - N/A   Clear
11:15 AM 73.4 °F 50.0 °F 44% 30.07 in 10.0 mi East 6.9 mph - N/A   Clear
11:35 AM 75.2 °F 50.0 °F 41% 30.07 in 10.0 mi East 5.8 mph - N/A   Clear
11:55 AM 75.2 °F 50.0 °F 41% 30.06 in 10.0 mi ESE 8.1 mph - N/A   Clear
12:35 PM 77.0 °F 48.2 °F 36% 30.05 in 10.0 mi ENE 9.2 mph - N/A   Partly Cloudy
12:55 PM 78.8 °F 48.2 °F 34% 30.04 in 10.0 mi NE 11.5 mph - N/A   Partly Cloudy
1:15 PM 77.0 °F 48.2 °F 36% 30.03 in 10.0 mi East 6.9 mph - N/A   Clear
1:35 PM 77.0 °F 48.2 °F 36% 30.03 in 10.0 mi ENE 9.2 mph - N/A   Clear
1:55 PM 77.0 °F 48.2 °F 36% 30.02 in 10.0 mi East 10.4 mph - N/A   Clear
2:35 PM 78.8 °F 50.0 °F 36% 30.02 in 10.0 mi ENE 13.8 mph 19.6 mph N/A   Clear
2:55 PM 78.8 °F 48.2 °F 34% 30.02 in 10.0 mi NE 12.7 mph 18.4 mph N/A   Partly Cloudy
3:15 PM 78.8 °F 48.2 °F 34% 30.02 in 10.0 mi NE 15.0 mph - N/A   Partly Cloudy
3:35 PM 77.0 °F 48.2 °F 36% 30.03 in 10.0 mi NE 10.4 mph - N/A   Scattered Clouds
3:55 PM 77.0 °F 50.0 °F 39% 30.03 in 10.0 mi NE 12.7 mph - N/A   Partly Cloudy
4:15 PM 78.8 °F 51.8 °F 39% 30.02 in 10.0 mi NE 15.0 mph - N/A   Clear
4:35 PM 78.8 °F 51.8 °F 39% 30.02 in 10.0 mi NE 15.0 mph - N/A   Partly Cloudy
4:55 PM 78.8 °F 50.0 °F 36% 30.01 in 10.0 mi ENE 13.8 mph - N/A   Scattered Clouds
5:15 PM 78.8 °F 51.8 °F 39% 30.00 in 10.0 mi NE 15.0 mph 19.6 mph N/A   Clear
5:35 PM 78.8 °F 51.8 °F 39% 29.99 in 10.0 mi NE 17.3 mph - N/A   Clear
5:55 PM 78.8 °F 51.8 °F 39% 29.99 in 10.0 mi NE 15.0 mph 23.0 mph N/A   Clear
6:15 PM 75.2 °F 50.0 °F 41% 30.00 in 10.0 mi NE 17.3 mph - N/A   Clear
6:35 PM 75.2 °F 50.0 °F 41% 29.99 in 10.0 mi NE 16.1 mph - N/A   Clear
6:55 PM 75.2 °F 50.0 °F 41% 29.98 in 10.0 mi ENE 12.7 mph - N/A   Clear
7:15 PM 73.4 °F 50.0 °F 44% 29.98 in 10.0 mi NE 15.0 mph - N/A   Clear
7:35 PM 73.4 °F 50.0 °F 44% 29.98 in 10.0 mi ENE 12.7 mph - N/A   Clear
7:55 PM 71.6 °F 48.2 °F 43% 29.98 in 10.0 mi NE 12.7 mph - N/A   Clear
8:35 PM 69.8 °F 48.2 °F 46% 29.98 in 10.0 mi ENE 9.2 mph - N/A   Clear
8:55 PM 68.0 °F 48.2 °F 49% 29.98 in 10.0 mi NE 10.4 mph - N/A   Clear
9:15 PM 68.0 °F 48.2 °F 49% 29.98 in 10.0 mi NE 10.4 mph - N/A   Clear
9:35 PM 68.0 °F 48.2 °F 49% 30.00 in 10.0 mi NE 8.1 mph - N/A   Clear
9:55 PM 66.2 °F 48.2 °F 52% 29.99 in 10.0 mi NE 9.2 mph - N/A   Clear
10:15 PM 66.2 °F 48.2 °F 52% 29.98 in 10.0 mi NE 10.4 mph - N/A   Clear
10:55 PM 66.2 °F 50.0 °F 56% 30.01 in 10.0 mi ENE 8.1 mph - N/A   Scattered Clouds
11:15 PM 66.2 °F 50.0 °F 56% 30.02 in 10.0 mi NE 10.4 mph - N/A   Mostly Cloudy
11:55 PM 60.8 °F 55.4 °F 82% 30.08 in 10.0 mi Calm Calm - 0.05 in   Mostly Cloudy